Miscellaneous Local Product
Issued by NWS North Platte, NE

Home | Current Version | Previous Version | Graphics & Text | Print | Product List | Glossary On
Versions: 1 2 3 4 5 6 7 8 9 10 11 12 13 14 15 16 17 18 19 20 21 22 23 24 25 26 27 28 29 30 31 32 33 34 35 36 37 38 39 40 41 42 43 44 45 46 47 48 49 50
281
AXUS43 KLBF 250510
MISLBF


WESTERN AND NORTH CENTRAL NEBRASKA HOURLY WEATHER ROUNDUP
NATIONAL WEATHER SERVICE NORTH PLATTE NE
1200 AM CDT MON SEP 25 2017

NOTE: "FAIR" INDICATES FEW OR NO CLOUDS BELOW 12,000 FEET WITH NO
SIGNIFICANT WEATHER AND/OR OBSTRUCTIONS TO VISIBILITY.

NOTE: STATIONS NOT REPORTING VARIABLES SUCH AS SKY/WEATHER OR
PRESSURE ARE PROVIDED BY RAWS AND APRS NETWORKS AND ARE NOT UNDER
NATIONAL WEATHER SERVICE QUALITY CONTROL.

...OBSERVATIONS IN AND NEAR THE EASTERN PANHANDLE OF NEBRASKA...

CITY           SKY/WX    TMP DP  RH WIND       PRES   REMARKS
PINE RIDGE     CLOUDY    46  44  93 NE6       30.10F
GORDON         LGT RAIN  46  43  91 NE6       30.09S
CHADRON        CLOUDY    47  43  86 NE9       30.09F
ALLIANCE       LGT RAIN  45  43  93 NE13      30.06S
SIDNEY         LGT RAIN  46  45  96 NE13      30.04S FOG
CRESCENT LAKE    N/A     46  46 100 NE13G20     N/A
$$

...OBSERVATIONS IN NORTHERN NEBRASKA AND FAR SOUTHERN SOUTH DAKOTA...

CITY           SKY/WX    TMP DP  RH WIND       PRES   REMARKS
WINNER         CLOUDY    52  49  89 N8        30.08R
VALENTINE      LGT RAIN  51  47  86 N8        30.07F
THEDFORD       CLOUDY    50  48  93 N8        30.05S
AINSWORTH      DRIZZLE   50  49  98 N10       30.06F
O`NEILL        RAIN      52  52 100 N8G18     30.04F
ORD            LGT RAIN  53  50  89 N7        30.03R
BROKEN BOW     LGT RAIN  52  52 100 NE13      30.01S
HALSEY           N/A     49  49 100 N6G13       N/A
BUTTE            N/A     50  48  93 N12G20      N/A
CHAMBERS         N/A     52  51  97 CALM        N/A
EWING            N/A     52  51  95 N6G14       N/A
$$

...OBSERVATIONS IN SOUTHWEST NEBRASKA AND FAR NORTHEAST COLORADO...

CITY           SKY/WX    TMP DP  RH WIND       PRES   REMARKS
WRAY           CLOUDY   N/A N/A N/A NW14G23   30.02R FOG
HOLYOKE        TSTM      54  52  94 NW7       30.04R
IMPERIAL       CLOUDY    51  48  89 NE17G24   29.97F
OGALLALA       CLOUDY    51  48  90 NE16G22   30.00F
NORTH PLATTE   CLOUDY    52  50  93 NE14      30.01F
MCCOOK         LGT RAIN  54  54 100 NE9       29.98R FOG
LEXINGTON      LGT RAIN  54  52  92 N10       29.99R
STAPLETON        N/A     48  47  96 N6          N/A
GOTHENBURG       N/A     53  49  88 NE6         N/A
CALLAWAY         N/A     53  52  97 NE8         N/A
$$

...OBSERVATIONS IN CENTRAL LINCOLN COUNTY AREA...

CITY           SKY/WX    TMP DP  RH WIND       PRES   REMARKS
N.P. AIRPORT   CLOUDY    52  50  93 NE14      30.01F
N.P. DOWNTOWN    N/A     50  49  95 NE3         N/A
N.P. SOUTHEAST   N/A     50  48  93 NE3         N/A
N.P. HILLCREST   N/A     50  49  95 NE17        N/A
$$

...SOME OBSERVATIONS FROM AROUND THE REGION...

CITY           SKY/WX    TMP DP  RH WIND       PRES   REMARKS
DENVER         CLOUDY    47  45  93 N7        30.05S FOG
LIMON            N/A    N/A N/A N/A MISG        N/A
ASPEN          CLOUDY    32  26  78 SW5       30.11R WCI  27
LARAMIE        CLOUDY    33  32  96 CALM      30.10S
CASPER         FLURRIES  34  33  96 E7        30.14S WCI  28
CHEYENNE       LGT RAIN  40  37  89 N5        30.10S
SCOTTSBLUFF    CLOUDY    47  43  86 NE15      30.06F
GRAND ISLAND   CLOUDY    56  56 100 N16G22    30.00R
OMAHA          CLOUDY    65  60  84 W14       29.96R
SIOUX FALLS    RAIN      56  55  97 N10       30.00R FOG
PIERRE         LGT RAIN  49  46  90 N12       30.08R
BISMARCK       CLOUDY    47  46  97 NW3       30.12R
KANSAS CITY    CLEAR     74  66  76 S9        29.93F
HILL CITY      CLOUDY    59  58  96 NE9       29.92S
WICHITA        PTCLDY    75  66  73 SE12      29.90S
DODGE CITY     MOCLDY    69  64  84 S16       29.90S
OKLAHOMA CITY  MOCLDY    75  63  66 SE9       29.90F
DALLAS         PTCLDY    82  67  60 S10       29.88R
AMARILLO       CLOUDY    68  65  90 S15       29.94S
$$




USA.gov is the U.S. government's official web portal to all federal, state and local government web resources and services.